DW7346 Weather Reports


time (UTC)temp
C
wind
direction
speed
KPH
gust
KPH
rain 1hr
cm
rain 24hr
cm
rain mn
cm
humidity
%
barometer
mb
20260509111516 20 286 3.2 8.0 0.00 0.08 0.03 94 1006.8
20260509110016 20 299 1.6 8.0 0.00 0.08 0.03 94 1006.8
20260509104520 20 90 0.0 0.0 0.00 0.10 0.03 93 1006.4
20260509103012 20 55 0.0 0.0 0.00 0.10 0.03 93 1006.1
20260509101512 20 55 0.0 0.0 0.00 0.10 0.03 92 1006.1
20260509100012 20 55 0.0 1.6 0.00 0.10 0.03 91 1006.2
20260509094510 21 65 0.0 0.0 0.00 0.10 0.03 91 1005.7
20260509093010 21 72 0.0 3.2 0.00 0.10 0.03 90 1005.6
20260509091510 21 187 1.6 4.8 0.00 0.10 0.03 90 1005.3
20260509090022 21 185 1.6 6.4 0.00 0.10 0.03 90 1005.5
20260509084508 21 211 0.0 6.4 0.00 0.13 0.03 91 1005.2
20260509083016 21 131 1.6 16.1 0.00 0.13 0.03 91 1003.6
20260509081505 21 241 3.2 12.9 0.00 0.13 0.03 91 1004.0
20260509080002 21 189 4.8 14.5 0.00 0.13 0.03 91 1004.9
20260509074600 21 207 8.0 17.7 0.00 0.15 0.03 91 1005.9
20260509073106 21 235 6.4 16.1 0.00 0.15 0.03 91 1006.7
20260509071551 21 213 9.7 22.5 0.03 0.15 0.03 92 1007.0
20260509070055 20 191 6.4 16.1 0.03 0.15 0.03 93 1007.4
20260509064546 20 209 6.4 12.9 0.03 0.15 0.03 93 1007.8
20260509063050 20 257 3.2 6.4 0.03 0.15 0.03 93 1008.2
20260509061544 20 221 1.6 8.0 0.00 0.13 0.00 92 1008.1
20260509060042 20 200 1.6 4.8 0.00 0.13 0.00 91 1007.8
20260509054542 21 68 0.0 3.2 0.00 0.13 0.00 90 1008.0
20260509053043 21 45 0.0 0.0 0.00 0.13 0.00 89 1008.6
20260509051537 21 14 0.0 1.6 0.00 0.13 0.00 89 1008.7
20260509050048 21 19 0.0 3.2 0.00 0.13 0.00 89 1009.4
20260509044535 21 136 0.0 4.8 0.00 0.13 0.13 87 1008.0
20260509043040 21 90 0.0 3.2 0.00 0.13 0.13 86 1008.0
20260509041530 22 90 0.0 6.4 0.00 0.13 0.13 86 1008.0
20260509040031 22 105 1.6 4.8 0.00 0.13 0.13 86 1007.5
20260509034529 22 151 1.6 4.8 0.00 0.13 0.13 85 1007.0
20260509033037 22 136 3.2 8.0 0.00 0.13 0.13 85 1007.6
20260509031531 22 6 3.2 8.0 0.00 0.13 0.13 85 1008.3
20260509030028 22 62 0.0 6.4 0.00 0.13 0.13 86 1007.8
20260509024529 22 126 1.6 9.7 0.00 0.13 0.13 86 1006.9
20260509023027 22 105 1.6 4.8 0.00 0.13 0.13 85 1006.6
20260509021526 22 165 0.0 3.2 0.00 0.13 0.13 85 1006.1
20260509020025 22 98 0.0 9.7 0.00 0.13 0.13 84 1006.1
20260509014527 22 190 1.6 9.7 0.00 0.13 0.13 84 1005.8
20260509013027 22 203 1.6 8.0 0.00 0.13 0.13 83 1006.1
20260509011522 22 168 0.0 6.4 0.00 0.13 0.13 83 1006.3
20260509010023 22 199 0.0 8.0 0.00 0.13 0.13 82 1006.2
20260509004522 22 207 1.6 8.0 0.00 0.13 0.13 81 1006.0
20260509003024 23 155 1.6 11.3 0.00 0.13 0.13 79 1005.7
20260509001521 23 56 1.6 8.0 0.00 0.13 0.13 78 1005.6
20260509000035 23 149 1.6 14.5 0.00 0.13 0.13 78 1005.6
20260508234517 23 189 1.6 8.0 0.00 0.13 0.13 77 1005.8
20260508233016 23 192 1.6 9.7 0.00 0.13 0.13 75 1006.0
20260508231515 24 168 1.6 11.3 0.00 0.13 0.13 75 1006.0
20260508230014 24 216 3.2 8.0 0.00 0.13 0.13 74 1006.0
20260508224532 24 231 3.2 9.7 0.00 0.13 0.13 74 1006.2
20260508223013 25 188 3.2 8.0 0.00 0.13 0.13 73 1006.2
20260508221515 25 217 4.8 12.9 0.00 0.13 0.13 72 1006.2
20260508220010 24 193 3.2 11.3 0.00 0.13 0.13 72 1006.3
20260508214516 25 212 4.8 14.5 0.00 0.13 0.13 71 1006.2
20260508213009 25 51 1.6 11.3 0.00 0.13 0.13 72 1006.3
20260508211505 25 107 3.2 12.9 0.00 0.13 0.13 72 1006.5
20260508210005 25 181 4.8 16.1 0.00 0.13 0.13 72 1006.6
20260508204501 24 126 1.6 11.3 0.00 0.13 0.13 74 1007.0
20260508203107 22 247 3.2 9.7 0.00 0.13 0.13 75 1007.8
20260508201555 22 219 4.8 14.5 0.00 0.13 0.13 76 1008.5
20260508200108 23 209 1.6 12.9 0.00 0.13 0.13 76 1008.5
20260508194553 23 214 6.4 12.9 0.00 0.13 0.13 75 1008.5
20260508193059 23 175 4.8 16.1 0.00 0.13 0.13 75 1008.6
20260508191550 23 226 4.8 12.9 0.00 0.13 0.13 73 1008.7
20260508190049 24 130 6.4 16.1 0.00 0.13 0.13 72 1008.7
20260508184548 24 216 4.8 12.9 0.00 0.13 0.13 73 1008.7
20260508183101 24 223 1.6 11.3 0.00 0.13 0.13 73 1008.8
20260508181552 24 205 4.8 11.3 0.00 0.13 0.13 72 1009.2
20260508180040 23 226 3.2 11.3 0.00 0.13 0.13 72 1009.6
20260508174538 23 186 3.2 12.9 0.00 0.13 0.13 75 1009.8
20260508173037 23 245 0.0 9.7 0.00 0.13 0.13 76 1010.0
20260508171535 22 132 1.6 12.9 0.00 0.13 0.13 74 1010.0
20260508170028 22 224 3.2 9.7 0.00 0.13 0.13 74 1010.5
20260508164525 21 184 3.2 8.0 0.00 0.13 0.13 75 1010.8
20260508163023 21 177 1.6 8.0 0.00 0.13 0.13 75 1011.2
20260508161530 20 207 1.6 12.9 0.00 0.13 0.13 79 1011.4
20260508160011 19 105 1.6 8.0 0.03 0.13 0.13 82 1011.6
20260508154509 18 179 1.6 6.4 0.03 0.13 0.13 85 1011.7
20260508153005 17 212 6.4 11.3 0.03 0.13 0.13 86 1012.0
20260508151504 17 169 1.6 6.4 0.03 0.13 0.13 91 1011.8
20260508150008 17 205 0.0 4.8 0.00 0.10 0.10 93 1012.3
20260508144502 17 108 1.6 4.8 0.00 0.10 0.10 96 1012.2
20260508143005 16 192 1.6 6.4 0.00 0.10 0.10 97 1012.2
20260508141608 16 265 0.0 3.2 0.00 0.10 0.10 96 1012.6
20260508140109 16 101 0.0 3.2 0.00 0.10 0.10 97 1012.4
20260508134559 16 92 0.0 4.8 0.00 0.10 0.10 97 1012.3
20260508133059 16 80 0.0 4.8 0.00 0.10 0.10 97 1012.2
20260508131600 15 73 0.0 0.0 0.00 0.10 0.10 97 1012.3
20260508130057 15 73 0.0 3.2 0.00 0.10 0.10 96 1012.3
20260508124601 15 127 0.0 4.8 0.03 0.10 0.10 96 1012.5
20260508123055 15 169 0.0 4.8 0.03 0.10 0.10 96 1012.4
20260508121554 15 264 1.6 6.4 0.03 0.10 0.10 96 1012.2
20260508120053 15 143 1.6 4.8 0.03 0.10 0.10 96 1012.8
20260508114600 15 174 0.0 3.2 0.00 0.08 0.08 96 1012.3
20260508113123 15 172 0.0 3.2 0.00 0.08 0.08 95 1012.2